Regional Weather Roundup
Issued by NWS

Home | Current Version | Previous Version | Text Only | Print | Product List | Glossary Off
Versions: 1 2 3 4 5 6 7 8 9 10 11 12 13 14 15 16 17 18 19 20 21 22 23 24 25 26 27 28 29 30 31 32 33 34 35 36 37 38 39 40 41 42 43 44 45 46 47 48 49 50

000
ASUS43 KLSX 220759
RWRMO

WEATHER SUMMARY FOR MISSOURI
NATIONAL WEATHER SERVICE SPRINGFIELD MO
300 AM CDT TUE JUL 22 2014

NOTE: "FAIR" INDICATES FEW OR NO CLOUDS BELOW 12,000 FEET WITH NO
       SIGNIFICANT WEATHER AND/OR OBSTRUCTIONS TO VISIBILITY.
       CURRENT SKY AND/OR WEATHER CONDITIONS ARE NOT AVAILABLE FOR
       CHILLICOTHE AND FARMINGTON.

MOZ001>031-035>038-043-044-053-054-220900-
...NORTHERN AND WESTERN MISSOURI...

CITY           SKY/WX    TMP DP  RH WIND       PRES   REMARKS
KANSAS CTY INT PTCLDY    79  74  84 S13       29.98S
KANSAS C DTWN  CLEAR     81  74  79 S9        29.97S
LEE`S SUMMIT   CLEAR     78  73  84 S7        30.00F
ST JOSEPH      CLEAR     79  74  84 S5        29.95S
CHILLICOTHE      N/A     78  72  81 S6        29.99F
KIRKSVILLE     PTCLDY    74  68  81 S9        30.02F

$$
MOZ066>068-077>081-088>096-101>105-220900-
...SOUTHWEST MISSOURI...

CITY           SKY/WX    TMP DP  RH WIND       PRES   REMARKS
SPRINGFIELD    PTCLDY    72  66  81 S10       30.07F
JOPLIN         PTCLDY    74  70  87 S8        30.06S

$$
MOZ032>034-039>042-045>050-055>058-069>072-220900-
...CENTRAL MISSOURI...

CITY           SKY/WX    TMP DP  RH WIND       PRES   REMARKS
COLUMBIA       CLEAR     71  67  87 S7        30.07R
JEFFERSON CITY CLEAR     73  66  78 SE5       30.06R
ROLLA          CLEAR     69  64  84 S9        30.08S
SEDALIA        CLEAR     73  67  81 S8        30.04F
OSAGE BEACH    CLEAR     72  64  78 SE3       30.07S

$$
MOZ051-052-059>065-220900-
...EAST CENTRAL MISSOURI...

CITY           SKY/WX    TMP DP  RH WIND       PRES   REMARKS
ST LOUIS INTL  CLEAR     75  66  73 SW5       30.08R
SPIRIT OF STL  CLEAR     68  65  90 CALM      30.06F
ST CHARLES     CLEAR     69  65  86 CALM      30.06S

$$
MOZ072>076-082>087-097>100-106>115-220900-
...SOUTH CENTRAL AND SOUTHEAST MISSOURI...

CITY           SKY/WX    TMP DP  RH WIND       PRES   REMARKS
CAPE GIRARDEAU CLEAR     64  63  96 CALM      30.07R FOG
FARMINGTON     CLEAR     64  63  94 CALM      30.11S
POPLAR BLUFF   CLEAR     65  62  90 CALM      30.07S FOG
WEST PLAINS    CLEAR     67  62  84 CALM      30.11S

$$



USA.gov is the U.S. government's official web portal to all federal, state and local government web resources and services.